KB1JDX Weather Reports


time (UTC)temp
C
wind
direction
speed
KPH
gust
KPH
rain 1hr
cm
rain 24hr
cm
rain mn
cm
humidity
%
barometer
mb
20260906185207 23 336 0.0 0.0 0.00 0.00 0.00 42 1014.0
20260906183207 22 336 0.0 0.0 0.00 0.00 0.00 40 1014.2
20260906183104 22 336 0.0 0.0 0.00 0.00 0.00 41 1014.2
20260906181207 22 338 0.0 0.0 0.00 0.00 0.00 38 1014.2
20260906175207 22 337 0.0 0.0 0.00 0.00 0.00 33 1014.7
20260906173207 20 333 0.0 0.0 0.00 0.00 0.00 25 1014.7
20260906173104 20 335 0.0 0.0 0.00 0.00 0.00 25 1014.7
20260906171208 19 335 0.0 0.0 0.00 0.00 0.00 17 1014.9
20260906165207 19 335 0.0 0.0 0.00 0.00 0.00 18 1015.1
20260906163207 19 335 0.0 0.0 0.00 0.00 0.00 15 1015.2
20260906163104 18 335 0.0 0.0 0.00 0.00 0.00 14 1015.2
20260906161207 18 49 0.0 0.0 0.00 0.00 0.00 100 1015.3
20260906155206 17 347 0.0 0.0 0.00 0.00 0.00 100 1015.5
20260906153207 17 79 0.0 0.0 0.00 0.00 0.00 100 1015.6
20260906153104 17 79 0.0 0.0 0.00 0.00 0.00 100 1015.7
20260906145207 16 84 0.0 0.0 0.00 0.00 0.00 100 1015.7
20260906143207 16 84 0.0 0.0 0.00 0.00 0.00 100 1015.8
20260906143104 16 84 0.0 0.0 0.00 0.00 0.00 100 1015.8
20260906141207 16 84 0.0 0.0 0.00 0.00 0.00 100 1015.8
20260906135207 16 84 0.0 0.0 0.00 0.00 0.00 100 1015.5
20260906133207 15 84 0.0 0.0 0.00 0.00 0.00 100 1015.7
20260906133104 15 84 0.0 0.0 0.00 0.00 0.00 100 1015.7
20260906131207 15 84 0.0 0.0 0.00 0.00 0.00 100 1015.5
20260906125207 15 84 0.0 0.0 0.00 0.00 0.00 100 1015.3
20260906123207 15 84 0.0 0.0 0.00 0.00 0.00 100 1015.4
20260906123104 15 84 0.0 0.0 0.00 0.00 0.00 100 1015.4
20260906121207 15 84 0.0 0.0 0.00 0.00 0.00 100 1015.2
20260906115207 15 84 0.0 0.0 0.00 0.00 0.00 100 1015.1
20260906113207 15 84 0.0 0.0 0.00 0.00 0.00 100 1014.7
20260906113104 15 84 0.0 0.0 0.00 0.00 0.00 100 1014.6
20260906111207 15 84 0.0 0.0 0.00 0.00 0.00 100 1014.3
20260906105207 15 84 0.0 0.0 0.00 0.00 0.00 100 1014.0
20260906103207 15 84 0.0 0.0 0.00 0.00 0.00 100 1013.8
20260906103104 15 84 0.0 0.0 0.00 0.00 0.00 100 1013.7
20260906101207 15 84 0.0 0.0 0.00 0.00 0.00 100 1013.3
20260906095207 15 84 0.0 0.0 0.00 0.00 0.00 100 1013.2
20260906093207 15 84 0.0 0.0 0.00 0.00 0.00 100 1013.0
20260906093104 15 84 0.0 0.0 0.00 0.00 0.00 100 1012.9
20260906085207 15 84 0.0 0.0 0.00 0.00 0.00 100 1012.9
20260906083206 15 84 0.0 0.0 0.00 0.00 0.00 100 1012.8
20260906083104 15 84 0.0 0.0 0.00 0.00 0.00 100 1012.9
20260906081207 15 84 0.0 0.0 0.00 0.00 0.00 100 1012.8
20260906073207 16 84 0.0 0.0 0.00 0.00 0.00 100 1012.8
20260906073104 16 84 0.0 0.0 0.00 0.00 0.00 100 1012.7
20260906065207 16 84 0.0 0.0 0.00 0.00 0.00 100 1012.6
20260906063207 16 84 0.0 0.0 0.00 0.00 0.00 100 1012.6
20260906063104 16 84 0.0 0.0 0.00 0.00 0.00 100 1012.6
20260906055207 16 84 0.0 0.0 0.00 0.00 0.00 100 1012.7
20260906053207 16 84 0.0 0.0 0.00 0.00 0.00 100 1012.7
20260906053104 16 84 0.0 0.0 0.00 0.00 0.00 100 1012.7
20260906051206 16 84 0.0 0.0 0.00 0.00 0.00 100 1013.0
20260906045206 16 84 0.0 0.0 0.00 0.00 0.00 100 1013.0
20260906043208 16 84 0.0 0.0 0.00 0.00 0.00 100 1012.9
20260906043104 16 84 0.0 0.0 0.00 0.00 0.00 100 1012.9
20260906041207 16 84 0.0 0.0 0.00 0.00 0.00 100 1012.9
20260906033104 16 84 0.0 0.0 0.00 0.00 0.00 100 1012.9
20260906031207 16 84 0.0 0.0 0.00 0.00 0.00 100 1012.8
20260906025207 16 84 0.0 0.0 0.00 0.00 0.00 100 1012.5
20260906023104 16 83 0.0 0.0 0.00 0.00 0.00 100 1012.6
20260906021206 16 84 0.0 0.0 0.00 0.00 0.00 100 1012.6
20260906015207 16 84 0.0 0.0 0.00 0.00 0.00 100 1012.8
20260906013206 17 310 0.0 0.0 0.00 0.00 0.00 100 1012.8
20260906013104 17 310 0.0 0.0 0.00 0.00 0.00 100 1012.8
20260906011206 17 309 0.0 0.0 0.00 0.00 0.00 100 1012.6
20260906005207 18 310 0.0 0.0 0.00 0.00 0.00 100 1012.4
20260906003207 18 310 0.0 0.0 0.00 0.00 0.00 100 1012.3
20260906003104 18 309 0.0 0.0 0.00 0.00 0.00 100 1012.1
20260906001207 18 309 0.0 0.0 0.00 0.00 0.00 100 1011.7
20260905235206 18 309 0.0 0.0 0.00 0.00 0.00 100 1011.4
20260905233206 18 309 0.0 0.0 0.00 0.00 0.00 100 1011.3
20260905233103 18 310 0.0 0.0 0.00 0.00 0.00 100 1011.3
20260905231206 19 310 0.0 0.0 0.00 0.00 0.00 100 1011.3
20260905225206 19 310 0.0 0.0 0.00 0.00 0.00 100 1011.2
20260905223206 20 309 0.0 0.0 0.00 0.00 0.00 100 1011.0
20260905223103 20 309 0.0 0.0 0.00 0.00 0.00 100 1011.0
20260905221206 20 309 0.0 0.0 0.00 0.00 0.00 100 1011.0
20260905215206 20 309 0.0 0.0 0.00 0.00 0.00 100 1010.6
20260905213207 20 309 0.0 0.0 0.00 0.00 0.00 100 1010.4
20260905213103 20 309 0.0 0.0 0.00 0.00 0.00 100 1010.4
20260905211206 20 309 0.0 0.0 0.00 0.00 0.00 100 1010.0
20260905205206 20 310 0.0 0.0 0.00 0.00 0.00 4 1010.4
20260905203206 22 309 0.0 0.0 0.00 0.00 0.00 34 1010.2
20260905203103 22 309 0.0 0.0 0.00 0.00 0.00 35 1010.2
20260905201206 22 307 0.0 0.0 0.00 0.00 0.00 37 1010.0
20260905195206 22 53 0.0 0.0 0.00 0.00 0.00 35 1009.6
20260905193207 23 53 0.0 0.0 0.00 0.00 0.00 37 1009.6
20260905193103 23 53 0.0 0.0 0.00 0.00 0.00 37 1009.5
20260905191207 23 58 0.0 0.0 0.00 0.00 0.00 40 1009.4